Concordia, KS

5:08 AM CST on December 06, 2019 (GMT -0600)
Blosser Municipal

Weather History for KCNK - October, 2019

Change the Weather History Date:

Wednesday, October 30, 2019

  Actual Average Record
Temperature  
Mean Temperature 28 °F 50 °F  
Max Temperature 33 °F 61 °F 88 °F (1968)
Min Temperature 23 °F 39 °F 15 °F (1925)
Degree Days  
Heating Degree Days 37 15  
Month to date heating degree days 387 303  
Since 1 July heating degree days 390 376  
Cooling Degree Days 0 0  
Month to date cooling degree days 9 20  
Year to date cooling degree days 1657 1346  
Moisture  
Dew Point 22 °F    
Average Humidity 69    
Maximum Humidity 85    
Minimum Humidity 53    
Precipitation  
Precipitation 0.02 in 0.04 in 4.07 in (1979)
Month to date precipitation 1.24 1.87  
Year to date precipitation 32.26 25.88  
Snow  
Snow 0.00 in 0.00 in 0.10 in (1991)
Month to date snowfall T 0.2  
Year to date snowfall 32.3 13.9  
Since 1 July snowfall T 0.2  
Snow Depth 0.00 in    
Sea Level Pressure  
Sea Level Pressure 30.34 in    
Wind  
Wind Speed 13 mph (North)    
Max Wind Speed 22 mph    
Max Gust Speed 29 mph    
Visibility 5 miles    
Events Snow    
T = Trace of Precipitation, MM = Missing Value Source: NWS Daily Summary

Daily Weather History Graph

Daily Weather History Graph

Search for Another Location

Airport or City:

Astronomy

Oct. 30, 2019 Rise Set
Actual Time 7:56 AM CDT 6:31 PM CDT
Civil Twilight 7:28 AM CDT 6:59 PM CDT
Nautical Twilight 6:56 AM CDT 7:30 PM CDT
Astronomical Twilight 6:25 AM CDT 8:02 PM CDT
Moon 10:40 AM CDT (10/30) 8:40 PM CDT (10/30)
Length of Visible Light 11h 30m
Length of Day
10h 35m
Waxing Crescent, 9% of the Moon is Illuminated
Oct 30
Waxing Crescent
Nov 4
First Quarter
Nov 12
Full
Nov 19
Last Quarter
Nov 26
New

Hourly Weather History & Observations

Time (CDT) Temp. Windchill Dew Point Humidity Pressure Visibility Wind Dir Wind Speed Gust Speed Precip Events Conditions
12:55 AM 33.1 °F 23.9 °F 25.0 °F 72% 30.35 in 10.0 mi NNE 12.7 mph 20.7 mph N/A   Overcast
1:55 AM 32.0 °F 22.5 °F 24.1 °F 73% 30.35 in 10.0 mi North 12.7 mph 23.0 mph N/A   Overcast
2:55 AM 32.0 °F 21.6 °F 23.0 °F 69% 30.35 in 10.0 mi North 15.0 mph 21.9 mph N/A   Overcast
3:55 AM 32.0 °F 22.5 °F 19.9 °F 61% 30.35 in 10.0 mi North 12.7 mph 23.0 mph N/A   Overcast
4:55 AM 30.9 °F 19.8 °F 19.0 °F 61% 30.34 in 10.0 mi North 16.1 mph 28.8 mph N/A   Overcast
5:55 AM 30.0 °F 20.0 °F 17.1 °F 59% 30.35 in 10.0 mi NNE 12.7 mph 24.2 mph N/A   Overcast
6:55 AM 30.0 °F 17.9 °F 16.0 °F 56% 30.36 in 10.0 mi North 18.4 mph 27.6 mph N/A   Overcast
7:55 AM 28.9 °F 17.7 °F 17.1 °F 61% 30.36 in 10.0 mi North 15.0 mph - N/A   Overcast
8:55 AM 28.9 °F 17.3 °F 19.0 °F 67% 30.38 in 10.0 mi NNE 16.1 mph 24.2 mph N/A   Overcast
9:55 AM 28.9 °F 16.9 °F 19.0 °F 67% 30.40 in 10.0 mi North 17.3 mph 25.3 mph N/A   Overcast
10:55 AM 28.9 °F 16.5 °F 21.0 °F 72% 30.40 in 6.0 mi North 18.4 mph 26.5 mph 0.00 in Snow Light Snow
11:55 AM 28.9 °F 16.9 °F 21.0 °F 72% 30.40 in 6.0 mi North 17.3 mph 26.5 mph 0.00 in Snow Light Snow
12:26 PM 28.9 °F 16.9 °F 21.9 °F 75% 30.36 in 1.8 mi North 17.3 mph 25.3 mph 0.00 in Snow Light Snow
12:30 PM 28.9 °F 16.9 °F 23.0 °F 78% 30.36 in 1.2 mi North 17.3 mph 25.3 mph 0.00 in Snow Light Snow
12:55 PM 28.9 °F 16.9 °F 23.0 °F 78% 30.39 in 1.2 mi North 17.3 mph 26.5 mph 0.00 in Snow Light Snow
1:03 PM 30.0 °F 18.7 °F 23.0 °F 75% 30.34 in 1.8 mi NNE 16.1 mph - 0.00 in Snow Light Snow
1:12 PM 30.0 °F 19.1 °F 24.1 °F 79% 30.34 in 2.0 mi NNE 15.0 mph - 0.01 in Snow Light Snow
1:19 PM 28.9 °F 18.2 °F 24.1 °F 82% 30.33 in 1.5 mi North 13.8 mph - 0.01 in Snow Light Snow
1:27 PM 30.0 °F 19.1 °F 24.1 °F 79% 30.34 in 2.0 mi North 15.0 mph - 0.01 in Snow Light Snow
1:38 PM 30.0 °F 18.7 °F 23.0 °F 75% 30.33 in 1.8 mi North 16.1 mph - 0.01 in Snow Light Snow
1:44 PM 30.0 °F 19.1 °F 24.1 °F 79% 30.32 in 1.5 mi North 15.0 mph - 0.01 in Snow Light Snow
1:51 PM 30.2 °F 19.8 °F 24.8 °F 80% 30.32 in 2.0 mi NNE 13.8 mph - 0.01 in Snow Light Snow
1:55 PM 30.0 °F 18.3 °F 23.0 °F 75% 30.36 in 2.5 mi North 17.3 mph 25.3 mph 0.01 in Snow Light Snow
2:20 PM 30.0 °F 18.3 °F 23.0 °F 75% 30.31 in 4.0 mi North 17.3 mph 25.3 mph 0.00 in Snow Light Snow
2:37 PM 30.0 °F 19.5 °F 23.0 °F 75% 30.30 in 2.0 mi North 13.8 mph - 0.00 in Snow Light Snow
2:44 PM 30.2 °F 19.3 °F 24.8 °F 80% 30.29 in 1.8 mi North 15.0 mph - N/A Snow Light Snow
2:55 PM 30.9 °F 20.2 °F 24.1 °F 76% 30.33 in 2.0 mi North 15.0 mph - 0.00 in Snow Light Snow
3:00 PM 30.0 °F 18.7 °F 24.1 °F 79% 30.29 in 3.0 mi North 16.1 mph - 0.00 in Snow Light Snow
3:55 PM 30.9 °F 20.7 °F 23.0 °F 72% 30.33 in 8.0 mi North 13.8 mph - 0.00 in Snow Light Snow
4:45 PM 28.9 °F 18.6 °F 23.0 °F 78% 30.29 in 2.5 mi NNW 12.7 mph - 0.00 in Snow Light Snow
4:55 PM 28.9 °F 18.2 °F 23.0 °F 78% 30.33 in 2.0 mi NNW 13.8 mph 19.6 mph 0.00 in Snow Light Snow
5:09 PM 28.9 °F 18.6 °F 23.0 °F 78% 30.29 in 3.0 mi NNW 12.7 mph - 0.00 in Snow Light Snow
5:46 PM 28.9 °F 19.8 °F 24.1 °F 82% 30.29 in 1.8 mi NNW 10.4 mph - 0.00 in Snow Light Snow
5:55 PM 28.9 °F 18.2 °F 24.1 °F 82% 30.33 in 1.8 mi NW 13.8 mph - 0.00 in Snow Light Snow
6:07 PM 28.9 °F 18.6 °F 24.1 °F 82% 30.28 in 1.5 mi NNW 12.7 mph - 0.00 in Snow Light Snow
6:27 PM 28.9 °F 19.2 °F 24.1 °F 82% 30.29 in 1.8 mi NW 11.5 mph - 0.00 in Snow Light Snow
6:36 PM 28.9 °F 21.1 °F 24.1 °F 82% 30.29 in 3.0 mi NW 8.1 mph - 0.00 in Snow Light Snow
6:55 PM 28.9 °F 20.4 °F 24.1 °F 82% 30.34 in 10.0 mi NW 9.2 mph - 0.00 in   Overcast
7:55 PM 28.9 °F 21.1 °F 23.0 °F 78% 30.35 in 10.0 mi NW 8.1 mph - N/A   Overcast
8:55 PM 28.0 °F 18.6 °F 23.0 °F 81% 30.35 in 10.0 mi WNW 10.4 mph - N/A   Overcast
9:32 PM 28.0 °F 18.6 °F 23.0 °F 81% 30.31 in 3.0 mi WNW 10.4 mph - 0.01 in Snow Light Snow
9:55 PM 28.0 °F 19.3 °F 23.0 °F 81% 30.35 in 5.0 mi West 9.2 mph - 0.01 in Snow Light Snow
10:55 PM 27.0 °F 19.5 °F 23.0 °F 85% 30.35 in 10.0 mi West 6.9 mph - 0.00 in   Overcast
11:55 PM 26.1 °F 17.6 °F 21.0 °F 81% 30.34 in 10.0 mi West 8.1 mph - N/A   Mostly Cloudy